Change the Weather History Date:

Friday, September 20, 2013

  Actual Average Record
Temperature  
Mean Temperature 61 °F 66 °F  
Max Temperature 69 °F 75 °F 92 °F (2003)
Min Temperature 53 °F 57 °F 52 °F (2007)
Degree Days  
Heating Degree Days 4    
Month to date heating degree days 13  
Since 1 July heating degree days 73  
Cooling Degree Days 0    
Month to date cooling degree days 46  
Year to date cooling degree days 242  
Growing Degree Days 11 (Base 50)    
Moisture  
Dew Point 57 °F    
Average Humidity 84    
Maximum Humidity 100    
Minimum Humidity 68    
Precipitation  
Precipitation 0.00 in - 0.01 in (2005)
Month to date precipitation 0.00  
Year to date precipitation 1.49  
Since 1 July precipitation T  
Sea Level Pressure  
Sea Level Pressure 29.86 in    
Wind  
Wind Speed 7 mph (West)    
Max Wind Speed 16 mph    
Max Gust Speed 18 mph    
Visibility 10 miles    
Events      
T = Trace of Precipitation, MM = Missing Value Source: NWS Daily Summary

Daily Weather History Graph

Daily Weather History Graph

Search for Another Location

Airport or City:

Trip Planner

Search our weather history database for the weather conditions in past years. The results will help you decide how hot, cold, wet, or windy it might be!

Date:

Astronomy

Sep. 20, 2013 Rise Set
Actual Time 6:54 AM PDT 7:08 PM PDT
Civil Twilight 6:28 AM PDT 7:34 PM PDT
Nautical Twilight 5:58 AM PDT 8:04 PM PDT
Astronomical Twilight 5:26 AM PDT 8:35 PM PDT
Moon 7:47 PM PDT (9/20) 8:12 AM PDT (9/20)
Length of Visible Light 13h 05m
Length of Day
12h 13m
Full, 98% of the Moon is Illuminated
Sep 20
Full
Sep 26
Last Quarter
Oct 4
New
Oct 11
First Quarter
Oct 18
Full

Hourly Weather History & Observations

Time (PDT) Temp. Dew Point Humidity Pressure Visibility Wind Dir Wind Speed Gust Speed Precip Events Conditions
12:54 AM 55.9 °F 53.1 °F 90% 29.82 in 10.0 mi Calm Calm - N/A   Clear
1:54 AM 57.0 °F 54.0 °F 89% 29.83 in 10.0 mi Calm Calm - N/A   Clear
2:54 AM 54.0 °F 51.1 °F 90% 29.82 in 10.0 mi North 5.8 mph - N/A   Clear
3:54 AM 55.0 °F 52.0 °F 89% 29.83 in 10.0 mi Calm Calm - N/A   Partly Cloudy
4:41 AM 53.6 °F 51.8 °F 94% 29.80 in 10.0 mi NW 3.5 mph - N/A   Mostly Cloudy
4:54 AM 55.0 °F 53.1 °F 93% 29.83 in 10.0 mi Calm Calm - N/A   Overcast
5:15 AM 53.6 °F 51.8 °F 94% 29.80 in 10.0 mi Calm Calm - N/A   Scattered Clouds
5:45 AM 53.6 °F 51.8 °F 94% 29.81 in 10.0 mi Calm Calm - N/A   Mostly Cloudy
5:54 AM 54.0 °F 53.1 °F 97% 29.83 in 10.0 mi Calm Calm - N/A   Overcast
6:34 AM 55.4 °F 53.6 °F 94% 29.81 in 10.0 mi SE 4.6 mph - N/A   Overcast
6:54 AM 55.9 °F 54.0 °F 93% 29.84 in 10.0 mi SE 5.8 mph - N/A   Overcast
7:54 AM 57.9 °F 55.0 °F 90% 29.86 in 10.0 mi Calm Calm - N/A   Overcast
8:54 AM 60.1 °F 57.0 °F 90% 29.87 in 10.0 mi SW 8.1 mph - N/A   Overcast
9:50 AM 57.2 °F 57.2 °F 100% 29.86 in 10.0 mi West 12.7 mph - N/A   Overcast
9:54 AM 57.9 °F 57.9 °F 100% 29.90 in 10.0 mi West 12.7 mph - N/A   Overcast
10:54 AM 59.0 °F 59.0 °F 100% 29.91 in 10.0 mi West 6.9 mph - N/A   Overcast
11:54 AM 60.1 °F 60.1 °F 100% 29.91 in 10.0 mi West 8.1 mph - N/A   Overcast
12:05 PM 62.6 °F 59.0 °F 88% 29.88 in 10.0 mi West 9.2 mph - N/A   Overcast
12:50 PM 66.2 °F 60.8 °F 83% 29.87 in 10.0 mi West 11.5 mph - N/A   Scattered Clouds
12:54 PM 66.0 °F 60.1 °F 81% 29.90 in 10.0 mi West 9.2 mph - N/A   Mostly Cloudy
1:54 PM 68.0 °F 57.9 °F 70% 29.88 in 10.0 mi West 9.2 mph - N/A   Overcast
2:54 PM 66.9 °F 60.1 °F 79% 29.88 in 10.0 mi West 10.4 mph - N/A   Overcast
3:54 PM 69.1 °F 61.0 °F 75% 29.88 in 10.0 mi WNW 13.8 mph - N/A   Overcast
4:54 PM 66.9 °F 59.0 °F 76% 29.86 in 10.0 mi West 9.2 mph - N/A   Overcast
5:07 PM 66.2 °F 60.8 °F 83% 29.83 in 10.0 mi West 6.9 mph - N/A   Overcast
5:32 PM 66.2 °F 60.8 °F 83% 29.83 in 10.0 mi West 12.7 mph - N/A   Overcast
5:54 PM 66.9 °F 59.0 °F 76% 29.86 in 10.0 mi West 9.2 mph - N/A   Overcast
6:54 PM 64.9 °F 59.0 °F 81% 29.86 in 10.0 mi WSW 8.1 mph - N/A   Overcast
7:54 PM 64.0 °F 59.0 °F 84% 29.87 in 10.0 mi West 6.9 mph - N/A   Mostly Cloudy
8:54 PM 63.0 °F 59.0 °F 87% 29.88 in 10.0 mi West 5.8 mph - N/A   Scattered Clouds
9:54 PM 63.0 °F 60.1 °F 90% 29.88 in 10.0 mi West 5.8 mph - N/A   Mostly Cloudy
10:54 PM 63.0 °F 59.0 °F 87% 29.88 in 10.0 mi West 6.9 mph - N/A   Overcast
11:54 PM 63.0 °F 57.9 °F 84% 29.86 in 10.0 mi South 9.2 mph - N/A   Mostly Cloudy